Regional Weather Roundup
Issued by NWS Grand Forks, ND

Home | Current Version | Previous Version | Text Only | Print | Product List | Glossary Off
Versions: 1 2 3 4 5 6 7 8 9 10 11 12 13 14 15 16 17 18 19 20 21 22 23 24 25 26 27 28 29 30 31 32 33 34 35 36 37 38 39 40 41 42 43 44 45 46 47 48 49 50

000
ASUS43 KFGF 171731
RWRFGF
PRAIRIE TO PINES  WEATHER ROUNDUP
NATIONAL WEATHER SERVICE EASTERN NORTH DAKOTA/GRAND FORKS ND
1200 PM CDT THU AUG 17 2017

 **SATELLITE DATA USED TO AUGMENT SKY COVER AT AUTOMATED STATIONS**
 *****  WEATHER ACROSS EASTERN NORTH DAKOTA  *****

CITY           SKY/WX    TMP DP  RH WIND       PRES   REMARKS
GRAND FORKS    FAIR      70  63  78 NW8       29.84S
GRAND FRKS AFB FAIR      71  62  72 N3        29.86R
DEVILS LAKE    FAIR      73  57  57 NW8       29.90R
FARGO          FAIR      72  63  73 N10       29.83S
WAHPETON ARPT  FAIR      70  59  68 N8        29.84S
$$

 ***** WEATHER ACROSS CENTRAL AND WESTERN NORTH DAKOTA  *****

CITY           SKY/WX    TMP DP  RH WIND       PRES   REMARKS
BISMARCK       FAIR      78  53  41 SE12      29.90F
MINOT          CLOUDY    82  48  30 SE9       29.87S
JAMESTOWN      FAIR      74  57  55 VRB3      29.89R
MINOT AFB      PTSUNNY   79  50  35 S10       29.85S
GARRISON         N/A     75  61  61 S10       29.87F
WILLISTON      FAIR      74  55  51 CALM      29.84F
DICKINSON      FAIR      77  52  41 SW8       29.87S
HETTINGER      FAIR      77  52  41 S7        29.91S
$$

 *****  OTHER AIRPORT OBSERVATIONS IN OUR AREA  *****

CITY           SKY/WX    TMP DP  RH WIND       PRES   REMARKS
WALHALLA       FAIR      73  73 100 CALM      29.85F
GRAFTON AIRPOR FAIR      70  63  78 N7        29.87S
VALLEY CITY AR   N/A     73  59  60 CALM      29.89S
CANDO          FAIR      75  54  46 NW6       29.92S
CAVALIER APRT  FAIR      72  63  73 VRB5      29.85S
GWINNER        SUNNY     73  61  64 CALM      29.87S
SHEYENNE NWR     N/A     72  62  71 N7        29.95S
ROLLA          FAIR      73  52  46 W6        29.91S
 ***** THE ABOVE OBSERVATIONS ARE NON NWS ARE NOT QUALITY
       CONTROLLED AND MAY MIS-REPORT RAIN FOR SNOW...
$$

  *****  WEATHER ACROSS NORTHERN MINNESOTA  *****

CITY           SKY/WX    TMP DP  RH WIND       PRES   REMARKS
FLAG ISLAND    FAIR      70  54  56 N3        29.82R
WARROAD        FAIR      70  63  78 NE5       29.84S
ROSEAU         FAIR      70  61  73 NE5       29.83S
HALLOCK        FAIR      73  63  68 N5        29.84S
THF RVR FALLS  PTSUNNY   72  59  64 N10       29.84S
BAUDETTE       PTSUNNY   67  57  70 N12       29.81F
WASKISH        CLOUDY    63  59  88 N8        29.81S
CROOKSTON      FAIR      72  61  68 N12       29.83S
STEPHEN NDAWN    N/A     72  63  73 N6          N/A
GREENBUSH NDAW   N/A    N/A N/A N/A N6          N/A
$$
  *****  WEATHER ACROSS CENTRAL AND WEST MINNESOTA  *****

CITY           SKY/WX    TMP DP  RH WIND       PRES   REMARKS
FOSSTON        PTSUNNY   66  63  88 N13G18    29.83S
BEMIDJI        CLOUDY    62  59  90 N12       29.80S
PARK RAPIDS    CLOUDY    65  60  84 N14       29.79S
ELBOW LAKE     CLOUDY    67  61  81 NW16G22   29.82S HAZE
WADENA         CLOUDY    64  63  94 N13G21    29.79R
DETROIT LAKES  CLOUDY    64  61  88 N9        29.83S
MOORHEAD       FAIR      70  63  78 N13       29.84S
FERGUS FALLS   PTSUNNY   70  64  83 N9G20     29.82R
MORRIS MN      FAIR      70  64  83 NW17G23   29.82R
STAPLES        CLOUDY    63  61  94 NW14      29.78R
$$
  *****  WEATHER ELSEWHERE ACROSS MINNESOTA  *****

CITY           SKY/WX    TMP DP  RH WIND       PRES   REMARKS
DULUTH         LGT RAIN  61  61 100 N10       29.64S FOG
INTRNTL FALLS  CLOUDY    60  58  92 N8        29.79S
ELY            RAIN      59  59 100 N5        29.70R
CLOQUET        CLOUDY    61  57  88 NW12G17   29.67R FOG
WHEATON        PTSUNNY   70  61  73 NW15      29.85F
BRAINERD       CLOUDY    64  61  90 NW14      29.75R
HIBBING        LGT RAIN  61  59  93 N12       29.70S
ALEXANDRIA     CLOUDY    65  62  90 N12G23    29.81R
SAINT CLOUD    CLOUDY    67  63  87 NW15G25   29.71R
MINNEAPOLIS    CLOUDY    66  60  81 NW18G28   29.66R
$$

  *****  WEATHER ACROSS SOUTH DAKOTA  *****

CITY           SKY/WX    TMP DP  RH WIND       PRES   REMARKS
SIOUX FALLS    FAIR      74  62  66 NW12G21   29.89S
BROOKINGS      FAIR      70  60  70 NW17      29.89R
WATERTOWN      FAIR      72  61  68 NW15      29.88R
HURON          FAIR      74  62  66 NW12      29.92S
SISSETON         N/A     71  64  78 N12       29.84F
ABERDEEN       FAIR      76  60  57 W8        29.91S
MITCHELL       FAIR      75  61  61 NW10      29.94S
PIERRE         FAIR      75  53  46 E8        29.91F
MOBRIDGE       FAIR      76  60  57 SE8       29.89F
RAPID CITY     FAIR      78  54  43 SE6       29.93F
$$

  *****  SOME WEATHER IN NEARBY STATES *****

CITY           SKY/WX    TMP DP  RH WIND       PRES   REMARKS
GLASGOW MT     FAIR      73  44  35 W10       29.88S
GREAT FALLS MT FAIR      77  36  22 NW9       30.03S
CHEYENNE WY    FAIR      78  37  22 W15       30.18S
SCOTTSBLUFF NE FAIR      77  58  51 E6        30.05F
OMAHA NE       FAIR      79  59  50 NW14G23   29.93R
DES MOINES IA  CLOUDY    73  62  68 W14       29.85R
DAVENPORT IA   PTSUNNY   76  65  68 SW14G26   29.80F
CHICAGO IL     PTSUNNY   77  70  79 S12G21    29.75F
EAU CLAIRE WI  CLOUDY    70  65  84 N14G26    29.54R
LA CROSSE WI   CLOUDY    73  65  75 SW13G22   29.62R
$$

  *****  SOME NATIONAL WEATHER *****

CITY           SKY/WX    TMP DP  RH WIND       PRES   REMARKS
LA GUARDIA NY  FAIR      79  65  62 NE12      30.04F
RALEIGH NC     PTSUNNY   92  77  61 CALM      30.02F HX 105
ATLANTA GA     PTSUNNY   87  73  62 W9        30.09F HX  94
NEW ORLEANS LA PTSUNNY   90  79  70 SW6       30.09F HX 106
OKLAHOMA CITY  FAIR      83  69  62 N7        30.06S
ALBUQUERQUE NM FAIR      79  39  23 VRB5      30.25S
SALT LAKE CITY FAIR      81  45  28 SE5       30.14R
LOS ANGELES CA PTSUNNY   71  62  73 SW6       30.03R
BOISE ID       FAIR      74  47  38 NW12      30.11S
SEATTLE WA     CLOUDY    62  56  80 W6        30.20S
$$

*** WEATHER ACROSS MANITOBA...SASKATCHEWAN AND ONTARIO ***
                ***ONTARIO***

CITY           SKY/WX    TMP DP  RH WIND       PRES   REMARKS
GERALDTON      LGT RAIN  61  57  88 E7        29.82F FOG
THUNDER BAY    LGT RAIN  61  61 100 NE15G22   29.69F
SIOUX LOOKOUT  PTSUNNY   61  54  77 E3        29.82S
TORONTO        LGT RAIN  73  61  64 E12       29.94F
BIG TROUT LK   PTSUNNY   70  61  73 S3        29.83F
PICKLE LAKE    PTSUNNY   68  55  64 E9        29.84F
DRYDEN         CLOUDY    64  55  72 NE7       29.81S
KENORA         PTSUNNY   68  55  64 N6        29.83S
$$
                *** MANITOBA***

CITY           SKY/WX    TMP DP  RH WIND       PRES   REMARKS
BRANDON        PTSUNNY   70  57  64 W5        29.88R
DAUPHIN        SUNNY     73  50  43 W9        29.85S
ISLAND LAKE    NOT AVBL
PILOT MOUND      N/A     73  50  43 NW6         N/A
THE PAS        CLOUDY    68  52  56 W10       29.79S
THOMPSON       MOSUNNY   73  48  40 SW16      29.72F
WINNIPEG       MOSUNNY   73  61  64 W5        29.84S
LYNN LAKE      LGT RAIN  63  52  67 MISG      29.67S
CHURCHILL      PTSUNNY   70  61  73 S13       29.69S
GILLAM         CLOUDY    70  57  64 SW9       29.73S
$$
                ***SASKATCHEWAN***

CITY           SKY/WX    TMP DP  RH WIND       PRES   REMARKS
ESTEVAN        PTSUNNY   77  55  47 E12G21    29.84F
KINDERSLEY     CLOUDY    63  50  63 NW8       29.96R
LLOYDMINSTER   MOSUNNY   66  55  68 W13G18    29.91S
PRINCE ALBERT  SUNNY     68  57  68 W6        29.86S
REGINA         CLOUDY    72  50  46 NW9       29.90S
YORKTON        SUNNY     72  55  56 VRB5      29.87R
N. BATTLEFORD  SUNNY     68  54  60 W10       29.91F
LA RONGE       MOSUNNY   72  55  56 W12       29.77S
SASKATOON      MOSUNNY   70  54  56 W8        29.90S
SWIFT CURRENT  PTSUNNY   66  46  48 VRB2      29.95F
$$
NOTE: THESE ARE AUTOMATED STATIONS WITH LIMITED QUALITY CONTROL
      "FAIR" INDICATES FEW OR NO CLOUDS BELOW 12,000 FEET WITH NO
      SIGNIFICANT WEATHER AND/OR OBSTRUCTIONS TO VISIBILITY.
      SKY/WX - SKY CONDITION AND SIGNIFICANT WEATHER.
      TMP - AIR TEMPERATURE.    DP   - DEWPOINT TEMPERATURE.
      RH  - RELATIVE HUMIDITY.  PRES - PRESSURE.
      HX  - HEAT INDEX.         WCI  - WIND CHILL INDEX.
$




USA.gov is the U.S. government's official web portal to all federal, state and local government web resources and services.